Location: Unnamed
(47.6578°N, 23.5640°E)
Time: 21:50:41
(UTC+03:00)

ISS - Pass Details

Date: 30 April 2020
Orbit: 418 x 421 km, 51.6° (Epoch: 08 May)

Event Time Altitude Azimuth Distance (km) Brightness Sun altitude
Exits shadow 05:29:58 - 235° (SW) 1,571 -1.5 -6.8°
Reaches altitude 10° 05:30:09 10° 235° (SW) 1,493 -1.7 -6.8°
Maximum altitude 05:33:29 68° 152° (SSE) 453 -3.6 -6.3°
Drops below altitude 10° 05:36:50 10° 69° (ENE) 1,502 0.8 -5.8°
Sets 05:38:57 0° 67° (ENE) 2,369 2.7 -5.5°
